SCP
0 0 0 1 1 1 1 2 1 0 0 0 0 0 0 0 0 0 0 0 0 0
0 0 1 1 1 1 1 1 0 0 0 0 1 0 0 0 0 0 0 0 0 0
0 0 1 1 1 1 1 1 1 0 0 0 1 0 0 0 0 0 0 0 0 0
0 1 1 1 1 1 1 1 1 1 0 0 0 0 0 0 0 0 0 0 0 0
0 0 0 0 1 1 1 1 1 1 1 1 0 0 0 0 0 0 0 0 0 0
0 0 0 0 1 1 1 0 0 0 1 1 0 0 0 0 0 0 0 0 0 0
0 0 0 0 0 0 1 0 0 1 0 0 0 0 0 0 0 0 0 0 0 0
0 0 0 0 0 0 0 0 0 0 0 0 0 0 0 0 0 0 0 0 0 0
0 0 0 0 0 0 0 0 0 0 0 0 0 0 0 0 0 0 0 0 0 -0
0 0 0 0 0 0 0 0 0 0 0 0 0 0 0 0 0 0 0 0 -0 -0
0 0 0 0 0 0 0 0 0 0 0 0 0 0 0 0 0 0 0 0 -0 -0
0 0 0 0 0 0 0 0 0 0 0 0 0 0 0 0 0 0 0 0 0 -0
0 0 0 0 0 0 0 0 0 0 0 0 0 0 0 0 0 0 0 0 0 -0
0 0 0 0 0 0 0 0 0 0 0 0 0 0 0 0 0 0 0 0 0 0
Wind_Speed_500mb
43 42 69 75 80 79 73 65 41 40 42 48 50 53 61 63 95 88 76 78 64 53
37 43 49 58 67 63 57 39 39 43 43 44 45 58 53 41 18 44 43 54 55 52
37 39 39 38 43 48 48 45 50 44 45 49 51 58 60 59 37 60 86 63 58 44
35 30 31 32 38 46 38 43 48 45 44 50 60 62 60 66 65 66 76 69 68 34
31 20 24 35 41 36 41 47 46 43 41 45 53 62 66 63 60 82 78 73 62 48
23 24 28 30 40 27 31 37 45 43 38 41 55 58 60 68 65 65 67 65 64 53
22 23 30 43 44 38 28 37 39 37 32 41 49 63 55 65 68 53 50 56 51 51
24 17 28 25 38 29 37 35 31 32 32 40 47 58 61 57 76 68 48 62 62 54
24 17 13 23 27 35 42 29 21 27 39 40 49 66 70 95 85 68 71 73 63 57
21 19 18 20 27 32 33 33 27 34 44 45 53 78 93 75 70 66 77 81 71 68
19 22 21 18 23 37 40 31 32 36 46 59 68 78 73 70 75 76 75 71 71 72
20 20 20 21 26 27 29 25 27 39 45 54 67 66 69 82 81 80 78 75 73 67
21 22 22 23 33 27 37 40 50 40 51 58 67 67 69 91 88 89 87 78 68 55
25 27 28 32 40 42 39 35 23 40 49 66 78 84 95 91 92 94 96 86 69 57
Wind_Direction_500mb
332 285 247 246 249 252 257 242 251 269 272 264 257 255 249 260 236 233 222 223 229 233
310 312 259 240 245 246 245 259 268 267 261 257 253 242 241 211 219 205 212 226 230 226
306 314 269 244 236 231 245 251 260 260 259 248 243 238 235 233 244 215 203 225 235 230
303 310 268 227 220 231 234 245 254 256 251 245 237 231 230 224 202 197 202 216 230 217
291 280 256 203 207 217 237 245 246 245 239 241 233 228 226 223 207 211 213 216 216 216
271 260 242 222 225 220 233 239 243 238 230 233 229 227 220 199 196 205 212 211 215 187
252 274 241 238 232 215 238 256 232 229 220 226 225 211 207 202 201 200 189 179 181 185
244 271 235 242 224 228 226 225 225 226 220 223 221 207 200 203 168 152 164 189 191 189
254 249 269 240 238 223 221 222 228 234 228 217 207 185 178 167 164 168 170 177 177 169
260 237 253 263 263 246 226 240 238 239 219 215 198 177 170 173 177 174 172 169 168 160
257 227 255 285 264 240 221 221 228 225 209 201 191 189 187 183 176 171 168 165 164 160
255 218 244 269 238 235 222 213 242 218 212 205 200 197 197 178 173 167 162 160 160 157
232 208 232 246 225 195 194 193 225 206 202 194 189 189 188 179 172 162 157 153 152 153
213 208 221 220 204 175 175 183 191 190 181 181 181 182 178 177 168 163 154 153 151 151
Wind_Speed_850mb
43 42 69 75 80 79 73 65 41 40 42 48 50 53 61 63 95 88 76 78 64 53
37 43 49 58 67 63 57 39 39 43 43 44 45 58 53 41 18 44 43 54 55 52
37 39 39 38 43 48 48 45 50 44 45 49 51 58 60 59 37 60 86 63 58 44
35 30 31 32 38 46 38 43 48 45 44 50 60 62 60 66 65 66 76 69 68 34
31 20 24 35 41 36 41 47 46 43 41 45 53 62 66 63 60 82 78 73 62 48
23 24 28 30 40 27 31 37 45 43 38 41 55 58 60 68 65 65 67 65 64 53
22 23 30 43 44 38 28 37 39 37 32 41 49 63 55 65 68 53 50 56 51 51
24 17 28 25 38 29 37 35 31 32 32 40 47 58 61 57 76 68 48 62 62 54
24 17 13 23 27 35 42 29 21 27 39 40 49 66 70 95 85 68 71 73 63 57
21 19 18 20 27 32 33 33 27 34 44 45 53 78 93 75 70 66 77 81 71 68
19 22 21 18 23 37 40 31 32 36 46 59 68 78 73 70 75 76 75 71 71 72
20 20 20 21 26 27 29 25 27 39 45 54 67 66 69 82 81 80 78 75 73 67
21 22 22 23 33 27 37 40 50 40 51 58 67 67 69 91 88 89 87 78 68 55
25 27 28 32 40 42 39 35 23 40 49 66 78 84 95 91 92 94 96 86 69 57
Wind_Direction_850mb
332 285 247 246 249 252 257 242 251 269 272 264 257 255 249 260 236 233 222 223 229 233
310 312 259 240 245 246 245 259 268 267 261 257 253 242 241 211 219 205 212 226 230 226
306 314 269 244 236 231 245 251 260 260 259 248 243 238 235 233 244 215 203 225 235 230
303 310 268 227 220 231 234 245 254 256 251 245 237 231 230 224 202 197 202 216 230 217
291 280 256 203 207 217 237 245 246 245 239 241 233 228 226 223 207 211 213 216 216 216
271 260 242 222 225 220 233 239 243 238 230 233 229 227 220 199 196 205 212 211 215 187
252 274 241 238 232 215 238 256 232 229 220 226 225 211 207 202 201 200 189 179 181 185
244 271 235 242 224 228 226 225 225 226 220 223 221 207 200 203 168 152 164 189 191 189
254 249 269 240 238 223 221 222 228 234 228 217 207 185 178 167 164 168 170 177 177 169
260 237 253 263 263 246 226 240 238 239 219 215 198 177 170 173 177 174 172 169 168 160
257 227 255 285 264 240 221 221 228 225 209 201 191 189 187 183 176 171 168 165 164 160
255 218 244 269 238 235 222 213 242 218 212 205 200 197 197 178 173 167 162 160 160 157
232 208 232 246 225 195 194 193 225 206 202 194 189 189 188 179 172 162 157 153 152 153
213 208 221 220 204 175 175 183 191 190 181 181 181 182 178 177 168 163 154 153 151 151